Home   Weather   Saint John's   Past weeks

Flag for Antigua and Barbuda Past Weather in Saint John's, Antigua and Barbuda — Yesterday and Last 2 Weeks

Now
84 °F

Passing clouds.


Feels Like: 92 °F
Forecast: 82 / 86 °F
Wind: 12 mph from East

Location: Vc Bird International Antigua Airport

Current Time: Jul 24, 2017 at 8:54:26 am

Latest Report: Jul 24, 2017 at 8:00 am


Visibility: N/A

Pressure: 30.04 "Hg

Humidity: 74%

Dew Point: 75 °F

Location of Saint John'sLocation

Past Weather in Saint John's — Graph

°F

Saint John's Temperature Yesterday

Maximum temperature yesterday: 88 °F (at 1:00 pm)
Minimum temperature yesterday: 81 °F (at 6:00 am)
Average temperature yesterday: 84 °F

High & Low Weather Summary for the Past Weeks

 TemperatureHumidityPressure
High88 °F (Jul 9, 11:00 am)94% (Jul 12, 11:00 pm)30.07 "Hg (Jul 12, 11:00 pm)
Low75 °F (Jul 20, 1:33 pm)62% (Jul 9, 1:00 pm)29.95 "Hg (Jul 9, 4:00 pm)
Average83 °F77%30.02 "Hg
* Reported Jul 9 7:00 am — Jul 24 7:00 am, Saint John's. Weather by CustomWeather, © 2017

Note: Actual official high and low records may vary slightly from our data, if they occured in-between our weather recording intervals... More about our weather records

Advertising

Saint John's Weather History for the Previous 24 Hours

Scroll right to see more
 ConditionsComfort  
Time TempWeatherWind HumidityBarometerVisibility
7:00 am
Mon, Jul 24
82 °FPassing clouds.9 mph79%30.04 "HgN/A
6:00 am81 °FPassing clouds.9 mph84%30.04 "HgN/A
5:00 am82 °FPassing clouds.10 mph74%30.01 "HgN/A
3:00 am82 °FPassing clouds.13 mph79%30.01 "HgN/A
2:00 am82 °FPassing clouds.12 mph79%30.04 "HgN/A
1:00 am82 °FPassing clouds.13 mph79%30.04 "HgN/A
12:00 am82 °FPassing clouds.12 mph79%30.07 "HgN/A
11:00 pm
Sun, Jul 23
82 °FPassing clouds.12 mph79%30.07 "HgN/A
10:00 pm82 °FPassing clouds.12 mph79%30.07 "HgN/A
9:00 pm82 °FPassing clouds.12 mph79%30.07 "HgN/A
8:00 pm82 °FPassing clouds.9 mph79%30.04 "HgN/A
7:00 pm82 °FPassing clouds.12 mph79%30.04 "HgN/A
6:00 pm84 °FScattered clouds.12 mph74%30.01 "HgN/A
5:00 pm84 °FPassing clouds.13 mph74%29.98 "HgN/A
4:00 pm86 °FPartly sunny.13 mph70%30.01 "HgN/A
3:00 pm88 °FScattered clouds.13 mph66%30.01 "HgN/A
2:00 pm88 °FScattered clouds.14 mph66%30.01 "HgN/A
1:00 pm88 °FPartly sunny.14 mph70%30.01 "HgN/A
12:00 pm86 °FPartly sunny.14 mph75%30.04 "HgN/A
11:00 am86 °FScattered clouds.13 mph75%30.04 "HgN/A
10:00 am86 °FScattered clouds.12 mph75%30.04 "HgN/A
9:00 am82 °FScattered clouds.9 mph84%30.04 "HgN/A
8:00 am84 °FScattered clouds.12 mph79%30.01 "HgN/A
Weather by CustomWeather, © 2017

See weather overviewHow to use our weather pages